TimeCST,TemperatureF,Dew PointF,Humidity,Sea Level PressureIn,VisibilityMPH,Wind Direction,Wind SpeedMPH,Gust SpeedMPH,PrecipitationIn,Events,Conditions,WindDirDegrees,DateUTC
12:52 AM,39.0,27.0,62,30.23,10.0,West,5.8,-,N/A,,Clear,280,2013-02-03 06:52:00
1:52 AM,37.0,26.1,65,30.25,10.0,Calm,Calm,-,N/A,,Clear,0,2013-02-03 07:52:00
2:52 AM,37.0,25.0,62,30.27,10.0,Calm,Calm,-,N/A,,Clear,0,2013-02-03 08:52:00
3:52 AM,32.0,24.1,73,30.27,10.0,Calm,Calm,-,N/A,,Clear,0,2013-02-03 09:52:00
4:52 AM,28.0,23.0,81,30.28,10.0,WSW,4.6,-,N/A,,Clear,250,2013-02-03 10:52:00
5:52 AM,30.0,23.0,75,30.29,10.0,Calm,Calm,-,N/A,,Clear,0,2013-02-03 11:52:00
6:52 AM,30.0,24.1,79,30.30,10.0,West,4.6,-,N/A,,Clear,280,2013-02-03 12:52:00
7:52 AM,27.0,21.9,81,30.31,10.0,Calm,Calm,-,N/A,,Clear,0,2013-02-03 13:52:00
8:52 AM,34.0,26.1,73,30.29,10.0,Calm,Calm,-,N/A,,Clear,0,2013-02-03 14:52:00
9:52 AM,37.9,26.1,62,30.25,10.0,East,5.8,-,N/A,,Clear,80,2013-02-03 15:52:00
10:52 AM,42.1,19.9,41,30.25,10.0,ESE,4.6,-,N/A,,Clear,120,2013-02-03 16:52:00
11:52 AM,46.0,19.9,35,30.21,10.0,SSE,8.1,-,N/A,,Clear,160,2013-02-03 17:52:00
12:52 PM,48.0,19.9,33,30.16,10.0,South,9.2,-,N/A,,Clear,170,2013-02-03 18:52:00
1:52 PM,51.1,21.0,31,30.11,10.0,South,10.4,-,N/A,,Clear,180,2013-02-03 19:52:00
2:52 PM,55.0,23.0,29,30.06,10.0,SSW,11.5,-,N/A,,Clear,200,2013-02-03 20:52:00
3:52 PM,55.0,21.9,28,30.02,10.0,South,12.7,-,N/A,,Clear,190,2013-02-03 21:52:00
4:52 PM,55.9,23.0,28,29.98,10.0,SSW,11.5,19.6,N/A,,Clear,200,2013-02-03 22:52:00
5:52 PM,51.1,23.0,33,29.96,10.0,South,8.1,-,N/A,,Clear,190,2013-02-03 23:52:00
6:52 PM,48.0,25.0,41,29.95,10.0,South,4.6,-,N/A,,Clear,190,2013-02-04 00:52:00
7:52 PM,43.0,26.1,51,29.93,10.0,South,3.5,-,N/A,,Clear,190,2013-02-04 01:52:00
8:52 PM,42.1,26.1,53,29.91,10.0,Calm,Calm,-,N/A,,Clear,0,2013-02-04 02:52:00
9:52 PM,39.9,27.0,60,29.88,10.0,Calm,Calm,-,N/A,,Clear,0,2013-02-04 03:52:00
10:52 PM,46.0,28.0,50,29.85,10.0,SSW,9.2,-,N/A,,Clear,210,2013-02-04 04:52:00
11:52 PM,45.0,28.0,52,29.83,10.0,SW,6.9,-,N/A,,Clear,220,2013-02-04 05:52:00